www.pogodaiklimat.ru

Погода и климат >> Архив погоды >> Сирия >> Аэропорт Басиля Эль-Асада


ПОГОДА в Аэропорту Басиля Эль-Асада

  • Прогноз погоды в Аэропорту Басиля Эль-Асада
  • Монитор погоды в Аэропорту Басиля Эль-Асада

АРХИВ ПОГОДЫ в Аэропорту Басиля Эль-Асада

Время (UTC), дата Ветер
(напр.,м/с)
 
Видим.   Явления Облачность Т
(С)
Тd
(С)
f
(%)
Тe
(С)
Тes
(С)
Комфортность P
(гПа)
Po
(гПа)
Тmin
(С)
Tmax
(С)
R
(мм)
R24
(мм)
S
(см)
03 13.06 В 2 10 км 8/8 800 м
[Cu Sc]
+21.4 +17.9 80 +26 +26 душно 1010.0 1004.2
06 13.06 Ю 3 10 км 8/8 800 м
[Cu Sc]
+24.8 +20.0 75 +30 +32 душно 1010.8 1005.0 +20.6
09 13.06 ЮЗ 4 10 км 8/8 800 м
[Cu Sc]
+28.2 +18.2 55 +33 +36 очень
душно
1011.1 1005.4
12 13.06 З 5 10 км 8/8 800 м
[Cu Sc]
+28.2 +19.2 58 +34 +35 очень
душно
1016.0 1010.3
15 13.06 З 5 10 км 6/6 800 м
[Cu Sc]
+27.0 +21.0 70 +34 +35 очень
душно
1009.4 1003.7
18 13.06 ЮЗ 2 10 км 4/4 800 м
[Cu Sc]
+24.0 +18.2 70 +28 +28 душно 1010.0 1004.2 +28.2
21 13.06 В 2 10 км 5/5 800 м
[Cu Sc]
+22.0 +18.2 79 +27 +27 душно 1010.0 1004.2
00 14.06 СВ 2 10 км 4/4 800 м
[Cu Sc]
+20.6 +17.2 81 +25 +25 комфорт 1009.2 1003.3
03 14.06 В 2 10 км 5/5 800 м
[Cu Sc]
+21.2 +17.2 78 +25 +25 комфорт 1008.7 1002.9
06 14.06 Ю 3 10 км 8/8 800 м
[Cu Sc]
+25.2 +18.4 66 +30 +32 душно 1009.1 1003.3 +20.8
09 14.06 ЮЗ 4 10 км 5/5 800 м
[Cu Sc]
+27.8 +20.6 65 +35 +42 очень
душно
1009.1 1003.4
12 14.06 ЮЗ 3 10 км 4/4 900 м
[Sc diur, vesp]
+28.2 +20.4 63 +35 +43 очень
душно
1008.5 1002.8
15 14.06 З 3 10 км 4/4 900 м
[Sc diur, vesp]
+27.0 +21.0 70 +34 +35 очень
душно
1007.9 1002.2
18 14.06 ЮЗ 2 10 км 5/5 900 м
[Sc diur, vesp]
+24.2 +20.9 82 +30 +30 очень
душно
1008.6 1002.8 +28.2
21 14.06 СВ 2 10 км 5/5 900 м
[Sc diur, vesp]
+22.5 +20.2 87 +29 +29 очень
душно
1008.6 1002.8
00 15.06 СВ 2 10 км 4/4 900 м
[Sc diur, vesp]
+22.4 +20.3 88 +29 +29 очень
душно
1007.0 1001.2
03 15.06 СВ 2 10 км 3/3 900 м
[Sc diur, vesp]
+20.4 +18.2 87 +25 +25 комфорт 1006.8 1001.0
06 15.06 ЮЗ 2 10 км 5/5 600 м
[Sc diur, vesp]
+26.0 +20.9 74 +33 +38 очень
душно
1007.4 1001.7 +20.4
09 15.06 З 5 10 км 4/4 900 м
[Sc diur, vesp]
+27.8 +20.3 64 +34 +41 очень
душно
1007.9 1002.2
12 15.06 ЮЗ 3 10 км 3/3 900 м
[Sc diur, vesp]
+28.2 +19.2 58 +34 +43 очень
душно
1007.5 1001.8
15 15.06 ЮЗ 2 10 км 3/3 900 м
[Sc diur, vesp]
+27.4 +19.1 61 +33 +35 очень
душно
1007.0 1001.3
18 15.06 З 2 10 км 5/5 800 м
[Cu Sc]
+24.4 +20.8 80 +30 +30 очень
душно
1007.2 1001.4 +28.2
21 15.06 В 2 10 км ясно +22.2 +19.8 86 +28 +28 душно 1007.4 1001.6
00 16.06 СВ 1 10 км ясно +21.0 +19.1 89 +27 +27 душно 1007.1 1001.3
03 16.06 СВ 2 10 км ясно +19.6 +17.4 87 +23 +23 комфорт 1006.7 1000.8
06 16.06 ЮЗ 1 10 км 4/4 800 м
[Cu Sc]
+26.0 +19.9 69 +32 +39 очень
душно
1007.4 1001.7 +19.6
09 16.06 З 3 10 км 4/4 800 м
[Cu Sc]
+28.3 +21.4 66 +36 +46 очень
душно
1007.4 1001.7
12 16.06 ЮЗ 3 10 км 4/4 800 м
[Cu Sc]
+28.6 +20.8 63 +36 +44 очень
душно
1007.2 1001.5
15 16.06 ЮЗ 2 10 км 4/4 800 м
[Cu Sc]
+27.6 +21.0 67 +35 +36 очень
душно
1007.2 1001.5
18 16.06 З 2 10 км 1/1 900 м
[Sc]
+24.2 +20.6 80 +30 +30 очень
душно
1007.8 1002.0 +28.8
21 16.06 СВ 2 10 км ясно +22.0 +19.9 88 +28 +28 душно 1008.0 1002.2
06 17.06 Ю 3 10 км 5/5 800 м
[Cu Sc]
+25.8 +20.7 73 +32 +36 очень
душно
1008.0 1002.3 +20.4
09 17.06 ЮЗ 4 8000 м 6/6 800 м
[Cu Sc]
+28.4 +21.0 64 +36 +41 очень
душно
1009.3 1003.6
12 17.06 ЮЗ 4 10 км 6/6 800 м
[Cu Sc]
+28.4 +20.6 63 +35 +40 очень
душно
1009.3 1003.6
18 17.06 ЮЗ 2 10 км 6/6 800 м
[Cu Sc]
+24.2 +20.9 82 +30 +30 очень
душно
1010.0 1004.2 +28.8
21 17.06 ЮЗ 4 10 км 6/6 800 м
[Cu Sc]
+24.5 +20.2 77 +30 +30 очень
душно
1010.3 1004.5
00 18.06 Ю 3 10 км 6/6 800 м
[Cu Sc]
+24.0 +19.7 77 +29 +29 душно 1009.6 1003.8
03 18.06 Ю 4 10 км 8/8 800 м
[Cu Sc]
+23.4 +20.0 81 +30 +30 очень
душно
1010.0 1004.2
06 18.06 ЮЗ 3 10 км 8/8 800 м
[Cu Sc]
+26.4 +21.3 74 +34 +35 очень
душно
1010.7 1005.0 +23.4
12 18.06 ЮЗ 6 15 км {дождь} 8/8 800 м
[Cu Sc]
+27.8 +20.2 63 +34 +35 очень
душно
1011.5 1005.8 2
18 18.06 ЮЗ 4 8000 м {дождь} 8/8 800 м
[Cu Sc]
+24.0 +20.0 78 +29 +29 душно 1010.9 1005.1 +27.8 7
21 18.06 н/о
00 19.06 Ю 2 10 км 6/6 800 м
[Cu Sc]
+24.6 +20.2 77 +30 +30 очень
душно
1010.4 1004.6
03 19.06 ЮЗ 3 10 км 6/6 800 м
[Cu Sc]
+23.8 +20.4 81 +29 +30 душно 1009.5 1003.7
06 19.06 ЮЗ 4 10 км {дождь} 8/8 800 м
[Cu Sc]
+25.0 +20.6 77 +31 +32 очень
душно
1009.7 1003.9 +23.8 0.5
09 19.06 ЮЗ 4 10 км 6/6 800 м
[Cu Sc]
+27.0 +21.3 71 +34 +40 очень
душно
1010.0 1004.3
12 19.06 ЮЗ 4 10 км 8/8 800 м
[Cu Sc]
+26.2 +22.1 78 +34 +36 очень
душно
1009.8 1004.1
15 19.06 ЮЗ 3 10 км 6/6 900 м
[Cu Sc]
+26.0 +21.6 77 +33 +34 очень
душно
1009.1 1003.4
18 19.06 Ю 2 10 км 6/6 800 м
[Cu Sc]
+24.4 +21.4 83 +31 +31 очень
душно
1009.1 1003.3 +28.0
21 19.06 ЮЗ 5 10 км 6/6 800 м
[Cu Sc]
+24.0 +21.0 83 +30 +30 очень
душно
1009.1 1003.3
00 20.06 ЮВ 3 10 км 5/5 900 м
[Sc diur, vesp]
+22.7 +21.1 91 +30 +30 очень
душно
1008.3 1002.5

 

Местоположение метеостанции Аэропорт Басиля Эль-Асада (Сирия): широта 35.40 долгота 35.93 высота над уровнем моря 50 м.

В архиве по умолчанию представлена погода в Аэропорту Басиля Эль-Асада за последнюю неделю. Архивные данные за месяц целиком и за предыдущие месяцы, начиная с января 2011 года, Вы можете получить, выбрав интересующий диапазон дат из раскрывающегося списка и нажав кнопку "Ввод!".


*Определитесь, кто Вы:
робот инопланетянин человек

Внимание! Время в таблицах - всемирное. Для получения местного времени необходимо прибавить поправку, которая равна 2 ч.

Смотрите также архив погоды в соседних городах и на ближайших метеорологических станциях:

Погода в Латакии (Сирия) (20 км)
Погода в Сафире (Сирия) (67 км)
Погода в Хаме (Сирия) (81 км)
Погода в Триполи (Ливан) (107 км)
Погода в Искендеруне (Турция) (133 км)
Погода в Ризокарпасо (Кипр) (142 км)
Погода в Алеппо (Сирия) (144 км)
Погода в Эн-Набке (Сирия) (169 км)
Погода в Гиалусе (Кипр) (174 км)
Погода в Хоуч-аль-Омаре (Ливан) (176 км)

Пояснения к столбцам:

Ветер - указаны скорость ветра в м/с - средняя за 10 мин, порывы в срок и между сроками (в фигурных скобках) и направление, откуда дует ветер: С - северный, СВ - северо-восточный, В - восточный, ЮВ - юго-восточный, Ю - южный, ЮЗ - юго-западный, З - западный, СЗ - северо-западный.
Видимость - горизонтальная дальность видимости в метрах или километрах. При видимости от 1 до 10 км при отсутствии осадков обычно наблюдается дымка, при ухудшении видимости до 1 км и менее - туман. В сухую погоду видимость может ухудшаться дымом, пылью или мглою.
Явления - указаны атмосферные явления, наблюдавшиеся в срок или в последний час перед сроком; фигурными скобками обозначены явления, наблюдавшиеся между сроками (за 1-3 часа до срока); квадратными скобками обозначены град или гололедные отложения с указанием их диаметра в мм.
Облачность - указаны через наклонную черту общая и нижняя облачность в баллах и высота нижней границы облаков в метрах; квадратными скобками обозначены формы облаков: Ci - перистые, Cs - перисто-слоистые, Cc - перисто-кучевые, Ac - высококучевые, As - высокослоистые, Sc - слоисто-кучевые, Ns - слоисто-дождевые, Cu - кучевые, Cb - кучево-дождевые. Подробнее классификацию облаков см. в Атласе облаков (PDF).
T - Температура воздуха - температура, измеренная на высоте 2 м над землей.
Td - Температура точки росы - температура, при понижении до которой содержащийся в воздухе водяной пар достигнет насыщения.
f - Относительная влажность воздуха - влажноcть воздуха, измеренная на высоте 2 м над землей.
Te - Эффективная температура - температура, которую ощущает одетый по сезону человек в тени. Характеристика душности погоды. При расчете учитывается влияние влажности воздуха и скорости ветра на теплоощущения человека.
Tes - Эффективная температура на солнце - температура, которую ощущает человек, с поправкой на солнечный нагрев. Характеристика знойности погоды. Зависит от высоты солнца над горизонтом, облачности и скорости ветра. Ночью, в пасмурную погоду, а также при ветре 12 м/с и более поправка равна нулю.
P - Атмосферное давление - приведенное к уровню моря атмосферное давление.
Po - Атмосферное давление - измеренное на уровне метеостанции атмосферное давление.
Tmin - Минимальная температура - минимум температуры воздуха на высоте 2 м над землей.
Tmax - Максимальная температура - максимум температуры воздуха на высоте 2 м над землей.
R - Количество осадков - Количество выпавших осадков за период времени, мм. При наведении курсора мыши на число - период времени, за который выпало указанное количество осадков.
R24 - Количество осадков - Количество выпавших осадков за 24 часа, мм.
S - Снежный покров - Высота снежного покрова, см. При наведении курсора мыши на число - состояние снежного покрова и степень покрытия местности в баллах.